Torna al catalogo

STARLINK-33734

AttivoComunicazioniVLEO
NORAD 63367·PAYLOAD·🇺🇸 United States

Lanciato Mar 26, 2025 da Vandenberg Space Force Base

Loading…

Prossimi Passaggi (prossime 24 ore)

TLE

AggiornatoSource: CelesTrak SupGP

Epoca: Sep 14, 2026, 20:43 UTC

1 63367C 25063E   26257.86368056  .00051466  00000+0  15211-2 0  2575
2 63367  53.1567 261.7665 0001211  83.5762 146.3977 15.34354119    17

Traccia STARLINK-33734 in tempo reale con AllMySat

Download on the App Store